Preview of NWS' New Version of Forecast
This preview is not operational and should not be used for support decisions.

Regional Weather Roundup (RWR)

Issued by National Weather Service (NWS)

                            
000
ASUS45 KABQ 201210
RWRNM 
NEW MEXICO REGIONAL WEATHER ROUNDUP
NATIONAL WEATHER SERVICE ALBUQUERQUE NM
600 AM MDT SAT APR 20 2019

NOTE: "FAIR" MEANS FEW OR NO CLOUDS BELOW 12,000 FEET AGL WITH NO
       SIGNIFICANT WEATHER OR OBSTRUCTIONS TO VISION.

      THIS PRODUCT IS RELEASED AS TWO VERSIONS.  ONE VERSION NEAR
      THE TOP OF THE HOUR CONTAINING PRELIMINARY DATA FROM ALBUQUERQUE
      AND OTHER STATIONS.  A FINAL VERSION WITH ADDITIONAL DATA IS 
      ISSUED ABOUT 10 MINUTES AFTER THE HOUR.
 
NMZ501-503-504-510>518-201300-
NORTHWEST PLATEAU/NORTHCENTRAL MOUNTAINS
  
CITY           SKY/WX    TMP DP  RH WIND       PRES   REMARKS
FARMINGTON     FAIR      42  21  43 E10       30.02F                  
6HR MIN TEMP:  39; 6HR MAX TEMP:  49;                                

LOS ALAMOS       N/A     52  20  28 SE5       30.15S                  
SANTA FE       FAIR      39  24  55 N7        30.10F WCI  34          
6HR MIN TEMP:  37; 6HR MAX TEMP:  54;                                

TAOS           FAIR      31  20  63 VRB6      30.18S WCI  25          
ANGEL FIRE       N/A     25  22  90 CALM      30.22S                  

$$
NMZ402-403-502-505>509-201300-
WESTCENTRAL MOUNTAINS/SOUTHWEST MOUNTAINS
  
CITY           SKY/WX    TMP DP  RH WIND       PRES   REMARKS
GALLUP         FAIR      32  22  66 CALM      30.09F                  
6HR MIN TEMP:  32; 6HR MAX TEMP:  44;                                

GRANTS         FAIR      34  26  74 NW7       30.14S WCI  28          
SILVER CITY    FAIR      39  20  46 NW8       30.08S WCI  34          

$$
NMZ407-409-411-412-201300-
SOUTHERN DESERTS
  
CITY           SKY/WX    TMP DP  RH WIND       PRES   REMARKS
DEMING         FAIR      48  26  42 NW3       30.02S                  
6HR MIN TEMP:  47; 6HR MAX TEMP:  58;                                

LAS CRUCES     FAIR      58  19  22 SE6       30.03S                  
HOLLOMAN AFB   FAIR      47  25  41 N7        30.05F                  
ALAMOGORDO     FAIR      50  25  37 N5        30.04S                  
T OR C         FAIR      51  17  26 NW9       30.04F                  
6HR MIN TEMP:  50; 6HR MAX TEMP:  68;                                


$$
NMZ519>523-201300-
CENTRAL VALLEYS/CENTRAL HIGHLANDS
  
CITY           SKY/WX    TMP DP  RH WIND       PRES   REMARKS
ALBUQUERQUE    FAIR      54  28  36 CALM      30.07S                  
6HR MIN TEMP:  52; 6HR MAX TEMP:  59;                                

DOUBLE EAGLE   PTCLDY    39  32  75 NW6       30.09S WCI  35          
MORIARTY ARPT  FAIR      34  32  93 CALM      30.13S                  
6HR MIN TEMP:  32; 6HR MAX TEMP:  46;                                

CLINES CORNERS FAIR      46  22  38 SW13      30.15S                  
6HR MIN TEMP:  42; 6HR MAX TEMP:  50;                                

BELEN          FAIR      49  32  51 CALM      30.07S                  
6HR MIN TEMP:  46; 6HR MAX TEMP:  58;                                

SOCORRO        FAIR      53  23  30 S8        30.06R                  
6HR MIN TEMP:  50; 6HR MAX TEMP:  58;                                


$$
NMZ524>526-539-540-201300-
SOUTHCENTRAL MOUNTAINS
  
CITY           SKY/WX    TMP DP  RH WIND       PRES   REMARKS
RUIDOSO        FAIR      54  14  20 SW8       30.18S                  

$$
NMZ527>531-201300-
NORTHEAST HIGHLANDS/NORTHEAST PLAINS
  
CITY           SKY/WX    TMP DP  RH WIND       PRES   REMARKS
LAS VEGAS      FAIR      48  21  34 SW9       30.12S                  
6HR MIN TEMP:  39; 6HR MAX TEMP:  50;                                

RATON          FAIR      35  29  78 NE9       30.08F WCI  28          
6HR MIN TEMP:  34; 6HR MAX TEMP:  50;                                

CLAYTON        FAIR      48  32  53 W16       29.97F                  
6HR MIN TEMP:  45; 6HR MAX TEMP:  51;                                


$$
NMZ532>537-201300-
EASTCENTRAL PLAINS
  
CITY           SKY/WX    TMP DP  RH WIND       PRES   REMARKS
SANTA ROSA     FAIR      43  30  59 S5        30.04S                  
TUCUMCARI      FAIR      49  34  56 SW9       29.98S                  
6HR MIN TEMP:  48; 6HR MAX TEMP:  58;                                

CANNON AFB     FAIR      47  33  58 W7        30.05F                  
6HR MIN TEMP:  47; 6HR MAX TEMP:  53;                                

CLOVIS AIRPORT FAIR      42  33  70 CALM      30.05F                  

$$
NMZ028-029-538-201300-
SOUTHEAST PLAINS
  
CITY           SKY/WX    TMP DP  RH WIND       PRES   REMARKS
ROSWELL        FAIR      44  28  53 SW6       30.01S                  
6HR MIN TEMP:  43; 6HR MAX TEMP:  56;                                

ARTESIA        FAIR      45  25  45 CALM      30.03S                  
CARLSBAD       FAIR      46  29  51 CALM      30.01S                  
6HR MIN TEMP:  45; 6HR MAX TEMP:  60;                                

HOBBS          CLEAR     48  34  57 S7        30.05S                  


$$